When you browse on this site, cookies collect data to enhance your experience and personalize the content and advertising you see.
Visit our Privacy Policy to learn more. By continuing to use the site, you agree to this use of cookies and data.
  • In Austria
  • List of Countries
  • For 7 days
  • Water Temperature
  • Satellite Maps
  • Weather Map
  • News
  • Weather Widgets
  • user-avatar
    Login

    Hourly Weather Perinovo

    Today, 23 July, Tuesday

    Time Temperature Precipitation Wind Pressure Humidity
    00:00 +14°C° 0 mm 3 mps 750 mmHg 95%
    01:00 +14°C° 0 mm 3 mps 750 mmHg 95%
    02:00 +14°C° 0 mm 3 mps 750 mmHg 97%
    03:00 +13°C° 0 mm 3 mps 750 mmHg 97%
    04:00 +12°C° 0 mm 3 mps 749 mmHg 97%
    05:00 +12°C° 0 mm 4 mps 749 mmHg 97%
    06:00 +13°C° 0 mm 4 mps 749 mmHg 96%
    07:00 +13°C° 0 mm 4 mps 749 mmHg 94%
    08:00 +14°C° 0 mm 4 mps 749 mmHg 93%
    09:00 +15°C° 0 mm 4 mps 749 mmHg 90%
    10:00 +17°C° 0 mm 4 mps 749 mmHg 86%
    11:00 +18°C° 0 mm 4 mps 749 mmHg 83%
    12:00 +18°C° 0.1 mm 4 mps 749 mmHg 81%
    13:00 +19°C° 0.1 mm 5 mps 749 mmHg 79%
    14:00 +19°C° 0.1 mm 5 mps 748 mmHg 77%
    15:00 +20°C° 0 mm 4 mps 748 mmHg 78%
    16:00 +20°C° 0 mm 3 mps 748 mmHg 78%
    17:00 +20°C° 0 mm 3 mps 749 mmHg 78%
    18:00 +19°C° 0.3 mm 3 mps 748 mmHg 82%
    19:00 +19°C° 0.3 mm 3 mps 748 mmHg 86%
    20:00 +18°C° 0.3 mm 3 mps 748 mmHg 90%
    21:00 +17°C° 0.1 mm 3 mps 748 mmHg 92%
    22:00 +17°C° 0.1 mm 3 mps 748 mmHg 93%
    23:00 +16°C° 0.1 mm 3 mps 748 mmHg 95%

    Tomorrow, 24 July, Wednesday

    Time Temperature Precipitation Wind Pressure Humidity
    00:00 +16°C° 0 mm 3 mps 748 mmHg 96%
    01:00 +16°C° 0 mm 3 mps 748 mmHg 96%
    02:00 +14°C° 0 mm 3 mps 748 mmHg 97%
    03:00 +14°C° 0 mm 3 mps 748 mmHg 97%
    04:00 +14°C° 0 mm 3 mps 748 mmHg 97%
    05:00 +14°C° 0 mm 3 mps 748 mmHg 97%
    06:00 +16°C° 0 mm 3 mps 748 mmHg 94%
    07:00 +17°C° 0 mm 3 mps 748 mmHg 91%
    08:00 +19°C° 0 mm 3 mps 748 mmHg 88%
    09:00 +20°C° 0.1 mm 4 mps 748 mmHg 79%
    10:00 +22°C° 0.1 mm 4 mps 748 mmHg 70%
    11:00 +25°C° 0.1 mm 4 mps 748 mmHg 61%
    12:00 +25°C° 0.1 mm 4 mps 748 mmHg 60%
    13:00 +26°C° 0.1 mm 4 mps 748 mmHg 59%
    14:00 +26°C° 0.1 mm 4 mps 748 mmHg 57%
    15:00 +26°C° 0 mm 3 mps 748 mmHg 59%
    16:00 +26°C° 0 mm 3 mps 748 mmHg 61%
    17:00 +26°C° 0 mm 3 mps 748 mmHg 63%
    18:00 +24°C° 0.1 mm 3 mps 748 mmHg 69%
    19:00 +21°C° 0.1 mm 2 mps 748 mmHg 75%
    20:00 +19°C° 0.1 mm 2 mps 749 mmHg 81%
    21:00 +18°C° 0 mm 2 mps 749 mmHg 84%
    22:00 +17°C° 0 mm 2 mps 749 mmHg 87%
    23:00 +16°C° 0 mm 2 mps 749 mmHg 90%

    Day after tomorrow, 25 July, Thursday

    Time Temperature Precipitation Wind Pressure Humidity
    00:00 +16°C° 0 mm 2 mps 749 mmHg 91%
    01:00 +15°C° 0 mm 2 mps 749 mmHg 91%
    02:00 +15°C° 0 mm 2 mps 750 mmHg 92%
    03:00 +15°C° 0 mm 2 mps 750 mmHg 91%
    04:00 +15°C° 0 mm 2 mps 750 mmHg 90%
    05:00 +14°C° 0 mm 2 mps 750 mmHg 90%
    06:00 +16°C° 0 mm 2 mps 750 mmHg 85%
    07:00 +18°C° 0 mm 2 mps 750 mmHg 80%
    08:00 +20°C° 0 mm 2 mps 750 mmHg 75%
    09:00 +21°C° 0.1 mm 2 mps 750 mmHg 71%
    10:00 +22°C° 0.1 mm 3 mps 750 mmHg 67%
    11:00 +25°C° 0.1 mm 3 mps 750 mmHg 63%
    12:00 +25°C° 0.8 mm 3 mps 749 mmHg 64%
    13:00 +25°C° 0.8 mm 3 mps 749 mmHg 65%
    14:00 +25°C° 0.8 mm 4 mps 749 mmHg 66%
    15:00 +24°C° 0.8 mm 3 mps 748 mmHg 70%
    16:00 +24°C° 0.8 mm 3 mps 748 mmHg 73%
    17:00 +22°C° 0.8 mm 3 mps 748 mmHg 77%
    18:00 +21°C° 0.4 mm 3 mps 748 mmHg 81%
    19:00 +20°C° 0.4 mm 3 mps 747 mmHg 86%
    20:00 +19°C° 0.4 mm 2 mps 747 mmHg 90%
    21:00 +18°C° 0 mm 2 mps 747 mmHg 91%
    22:00 +17°C° 0 mm 2 mps 747 mmHg 93%
    23:00 +16°C° 0 mm 2 mps 747 mmHg 94%

    26 July, Friday

    Time Temperature Precipitation Wind Pressure Humidity
    00:00 +16°C° 0 mm 2 mps 747 mmHg 95%
    01:00 +15°C° 0 mm 2 mps 747 mmHg 96%
    02:00 +15°C° 0 mm 2 mps 747 mmHg 97%
    03:00 +14°C° 0 mm 2 mps 747 mmHg 97%
    04:00 +14°C° 0 mm 2 mps 747 mmHg 97%
    05:00 +14°C° 0 mm 2 mps 747 mmHg 97%
    06:00 +14°C° 0 mm 3 mps 747 mmHg 95%
    07:00 +16°C° 0 mm 3 mps 747 mmHg 93%
    08:00 +17°C° 0 mm 3 mps 747 mmHg 90%
    09:00 +18°C° 0.1 mm 3 mps 747 mmHg 88%
    10:00 +18°C° 0.1 mm 4 mps 747 mmHg 85%
    11:00 +19°C° 0.1 mm 4 mps 747 mmHg 83%
    12:00 +20°C° 0.1 mm 4 mps 747 mmHg 79%
    13:00 +21°C° 0.1 mm 4 mps 747 mmHg 75%
    14:00 +23°C° 0.1 mm 4 mps 746 mmHg 71%
    15:00 +22°C° 0.5 mm 4 mps 746 mmHg 75%
    16:00 +22°C° 0.5 mm 4 mps 746 mmHg 79%
    17:00 +21°C° 0.5 mm 5 mps 746 mmHg 83%
    18:00 +21°C° 0.6 mm 4 mps 746 mmHg 86%
    19:00 +20°C° 0.6 mm 4 mps 746 mmHg 88%
    20:00 +19°C° 0.6 mm 4 mps 746 mmHg 91%
    21:00 +18°C° 0.3 mm 4 mps 746 mmHg 93%
    22:00 +18°C° 0.3 mm 4 mps 746 mmHg 95%
    23:00 +17°C° 0.3 mm 4 mps 746 mmHg 97%

    27 July, Saturday

    Time Temperature Precipitation Wind Pressure Humidity
    00:00 +17°C° 0 mm 3 mps 746 mmHg 97%
    01:00 +17°C° 0 mm 3 mps 746 mmHg 98%
    02:00 +16°C° 0 mm 2 mps 746 mmHg 98%
    03:00 +17°C° 0.3 mm 2 mps 746 mmHg 98%
    04:00 +17°C° 0.3 mm 2 mps 745 mmHg 98%
    05:00 +17°C° 0.3 mm 2 mps 745 mmHg 98%
    06:00 +17°C° 0.5 mm 2 mps 745 mmHg 98%
    07:00 +17°C° 0.5 mm 2 mps 745 mmHg 98%
    08:00 +17°C° 0.5 mm 2 mps 745 mmHg 98%
    09:00 +18°C° 0.4 mm 2 mps 745 mmHg 95%
    10:00 +19°C° 0.4 mm 3 mps 745 mmHg 93%
    11:00 +20°C° 0.4 mm 3 mps 745 mmHg 91%
    12:00 +21°C° 1 mm 4 mps 745 mmHg 89%
    13:00 +22°C° 1 mm 4 mps 745 mmHg 87%
    14:00 +23°C° 1 mm 5 mps 744 mmHg 85%
    15:00 +23°C° 0.9 mm 5 mps 744 mmHg 86%
    16:00 +22°C° 0.9 mm 5 mps 744 mmHg 87%
    17:00 +22°C° 0.9 mm 5 mps 744 mmHg 88%
    18:00 +21°C° 0.5 mm 4 mps 744 mmHg 90%
    19:00 +20°C° 0.5 mm 4 mps 744 mmHg 92%
    20:00 +20°C° 0.5 mm 3 mps 744 mmHg 94%
    21:00 +19°C° 0 mm 3 mps 744 mmHg 95%
    22:00 +19°C° 0 mm 3 mps 744 mmHg 96%
    23:00 +18°C° 0 mm 3 mps 744 mmHg 97%

    28 July, Sunday

    Time Temperature Precipitation Wind Pressure Humidity
    00:00 +18°C° 0 mm 2 mps 744 mmHg 97%
    01:00 +17°C° 0 mm 2 mps 744 mmHg 97%
    02:00 +17°C° 0 mm 2 mps 744 mmHg 97%
    03:00 +17°C° 0 mm 3 mps 744 mmHg 97%
    04:00 +17°C° 0 mm 3 mps 744 mmHg 97%
    05:00 +17°C° 0 mm 3 mps 744 mmHg 97%
    06:00 +18°C° 0 mm 3 mps 744 mmHg 95%
    07:00 +20°C° 0 mm 3 mps 745 mmHg 92%
    08:00 +21°C° 0 mm 3 mps 745 mmHg 90%
    09:00 +22°C° 0.4 mm 4 mps 745 mmHg 83%
    10:00 +25°C° 0.4 mm 4 mps 745 mmHg 76%
    11:00 +26°C° 0.4 mm 5 mps 745 mmHg 70%
    12:00 +27°C° 0.1 mm 5 mps 744 mmHg 67%
    13:00 +28°C° 0.1 mm 4 mps 744 mmHg 65%
    14:00 +28°C° 0.1 mm 4 mps 744 mmHg 62%
    15:00 +28°C° 0.4 mm 4 mps 744 mmHg 67%
    16:00 +27°C° 0.4 mm 4 mps 744 mmHg 71%
    17:00 +27°C° 0.4 mm 3 mps 744 mmHg 76%
    18:00 +25°C° 0.1 mm 3 mps 744 mmHg 80%
    19:00 +22°C° 0.1 mm 3 mps 744 mmHg 84%
    20:00 +21°C° 0.1 mm 3 mps 744 mmHg 89%
    21:00 +20°C° 0 mm 3 mps 744 mmHg 90%
    22:00 +19°C° 0 mm 3 mps 744 mmHg 92%
    23:00 +18°C° 0 mm 3 mps 745 mmHg 94%
    Show more